Moody AFB, GA

10:32 AM EST on December 06, 2016 (GMT -0500)
Moody Air Force Base

Weather History for KVAD - November, 2013

Change the Weather History Date:

Tuesday, November 5, 2013

  Actual Average Record
Temperature  
Mean Temperature 61 °F -  
Max Temperature 71 °F 72 °F 86 °F (2003)
Min Temperature 51 °F 51 °F 42 °F (1997)
Degree Days  
Heating Degree Days 4    
Growing Degree Days 11 (Base 50)    
Moisture  
Dew Point 49 °F    
Average Humidity 75    
Maximum Humidity 92    
Minimum Humidity 51    
Precipitation  
Precipitation 0.00 in - - ()
Sea Level Pressure  
Sea Level Pressure 30.31 in    
Wind  
Wind Speed 10 mph (NE)    
Max Wind Speed 15 mph    
Max Gust Speed 21 mph    
Visibility 9 miles    
Events Rain    
Averages and records for this station are not official NWS values.
T = Trace of Precipitation, MM = Missing Value Source: NWS Daily Summary

Daily Weather History Graph

Daily Weather History Graph

Search for Another Location

Airport or City:

Trip Planner

Search our weather history database for the weather conditions in past years. The results will help you decide how hot, cold, wet, or windy it might be!

Date:

Astronomy

Nov. 05, 2013 Rise Set
Actual Time 6:51 AM EST 5:40 PM EST
Civil Twilight 6:26 AM EST 6:06 PM EST
Nautical Twilight 5:57 AM EST 6:34 PM EST
Astronomical Twilight 5:29 AM EST 7:03 PM EST
Moon 8:59 AM EST (11/5) 7:46 PM EST (11/5)
Length of Visible Light 11h 39m
Length of Day
10h 49m
Waxing Crescent, 6% of the Moon is Illuminated
Nov 5
Waxing Crescent
Nov 10
First Quarter
Nov 17
Full
Nov 25
Last Quarter
Dec 2
New

Hourly Weather History & Observations

Time (EST) Temp. Dew Point Humidity Pressure Visibility Wind Dir Wind Speed Gust Speed Precip Events Conditions
12:58 AM 55.0 °F 42.6 °F 63% 30.32 in 10.0 mi NNE 9.2 mph - N/A   Clear
1:58 AM 54.3 °F 42.6 °F 65% 30.31 in 10.0 mi NNE 9.2 mph - N/A   Overcast
2:58 AM 54.3 °F 42.6 °F 65% 30.29 in 10.0 mi NE 10.4 mph - N/A   Overcast
3:58 AM 54.3 °F 44.1 °F 68% 30.30 in 10.0 mi NE 8.1 mph - N/A   Overcast
4:58 AM 54.1 °F 45.1 °F 72% 30.30 in 10.0 mi NE 8.1 mph - N/A   Overcast
5:52 AM 55.4 °F 46.4 °F 72% 30.30 in 10.0 mi NNE 8.1 mph - N/A Rain Light Rain
5:58 AM 54.5 °F 46.9 °F 76% 30.32 in 10.0 mi NNE 9.2 mph - 0.00 in Rain Light Rain
6:01 AM 53.6 °F 46.4 °F 77% 30.30 in 10.0 mi NE 8.1 mph - N/A   Overcast
6:04 AM 53.6 °F 46.4 °F 77% 30.31 in 10.0 mi NNE 9.2 mph - N/A Rain Light Rain
6:17 AM 53.6 °F 46.4 °F 77% 30.31 in 10.0 mi NNE 12.7 mph - N/A   Overcast
6:21 AM 53.6 °F 48.2 °F 82% 30.31 in 10.0 mi NNE 12.7 mph - N/A   Overcast
6:23 AM 53.6 °F 46.4 °F 77% 30.31 in 9.0 mi NE 12.7 mph - N/A Rain Light Rain
6:25 AM 53.6 °F 48.2 °F 82% 30.31 in 8.0 mi NNE 11.5 mph - N/A Rain Light Rain
6:27 AM 53.6 °F 48.2 °F 82% 30.31 in 8.0 mi NNE 11.5 mph - N/A Rain Light Rain
6:29 AM 53.6 °F 48.2 °F 82% 30.32 in 8.0 mi NNE 10.4 mph - N/A Rain Light Rain
6:33 AM 53.6 °F 48.2 °F 82% 30.32 in 9.0 mi NNE 12.7 mph - N/A Rain Light Rain
6:35 AM 53.6 °F 48.2 °F 82% 30.32 in 10.0 mi NNE 12.7 mph - N/A Rain Light Rain
6:37 AM 51.8 °F 48.2 °F 88% 30.31 in 10.0 mi NNE 11.5 mph - N/A Rain Light Rain
6:42 AM 51.8 °F 48.2 °F 88% 30.32 in 10.0 mi NNE 10.4 mph - N/A   Overcast
6:58 AM 52.7 °F 46.8 °F 80% 30.33 in 10.0 mi NNE 9.2 mph - 0.00 in   Overcast
7:58 AM 54.7 °F 45.7 °F 72% 30.34 in 10.0 mi NNE 9.2 mph - N/A   Scattered Clouds
8:58 AM 55.8 °F 45.3 °F 68% 30.36 in 10.0 mi NE 9.2 mph - N/A   Overcast
9:29 AM 55.4 °F 46.4 °F 72% 30.35 in 10.0 mi NE 9.2 mph - N/A   Overcast
9:32 AM 55.4 °F 46.4 °F 72% 30.35 in 9.0 mi NE 9.2 mph - N/A Rain Light Rain
9:34 AM 55.4 °F 46.4 °F 72% 30.35 in 7.0 mi NE 12.7 mph - N/A Rain Light Rain
9:40 AM 53.6 °F 48.2 °F 82% 30.35 in 4.0 mi NE 11.5 mph - N/A Rain Light Rain
9:42 AM 53.6 °F 48.2 °F 82% 30.35 in 4.0 mi NNE 10.4 mph - N/A Rain Light Rain
9:52 AM 51.8 °F 48.2 °F 88% 30.37 in 9.0 mi NE 9.2 mph - N/A Rain Light Rain
9:54 AM 51.8 °F 48.2 °F 88% 30.36 in 8.0 mi NE 9.2 mph - N/A Rain Light Rain
9:56 AM 51.8 °F 48.2 °F 88% 30.36 in 6.0 mi NE 10.4 mph - N/A Rain Light Rain
9:58 AM 51.8 °F 48.2 °F 88% 30.37 in 6.0 mi NE 10.4 mph - 0.00 in Rain Light Rain
10:00 AM 51.8 °F 48.2 °F 88% 30.36 in 5.0 mi NE 10.4 mph - N/A Rain Light Rain
10:10 AM 53.6 °F 50.0 °F 88% 30.36 in 8.0 mi NNE 9.2 mph - N/A Rain Light Rain
10:12 AM 53.6 °F 50.0 °F 88% 30.36 in 9.0 mi NNE 10.4 mph - N/A Rain Light Rain
10:18 AM 53.6 °F 50.0 °F 88% 30.35 in 10.0 mi NE 9.2 mph - N/A   Light Drizzle
10:22 AM 53.6 °F 50.0 °F 88% 30.35 in 10.0 mi NNE 8.1 mph - N/A   Overcast
10:33 AM 55.4 °F 48.2 °F 77% 30.35 in 10.0 mi NNE 9.2 mph - N/A Rain Light Rain
10:35 AM 55.4 °F 50.0 °F 82% 30.35 in 10.0 mi NNE 11.5 mph - N/A Rain Light Rain
10:39 AM 55.4 °F 50.0 °F 82% 30.35 in 10.0 mi NE 6.9 mph - N/A Rain Light Rain
10:44 AM 55.4 °F 50.0 °F 82% 30.35 in 10.0 mi NNE 6.9 mph - N/A   Overcast
10:58 AM 56.7 °F 48.7 °F 75% 30.36 in 10.0 mi NE 9.2 mph - 0.00 in   Overcast
11:19 AM 59.0 °F 48.2 °F 67% 30.34 in 10.0 mi NE 9.2 mph - N/A Rain Light Rain
11:30 AM 60.8 °F 48.2 °F 63% 30.33 in 10.0 mi NNE 9.2 mph - N/A   Mostly Cloudy
11:58 AM 64.6 °F 48.4 °F 56% 30.32 in 10.0 mi NE 11.5 mph - 0.00 in   Mostly Cloudy
12:58 PM 68.2 °F 51.1 °F 54% 30.28 in 10.0 mi ENE 10.4 mph 20.7 mph N/A   Clear
1:58 PM 70.0 °F 52.2 °F 53% 30.26 in 10.0 mi ENE 12.7 mph - N/A   Clear
2:58 PM 71.2 °F 53.1 °F 53% 30.24 in 10.0 mi NE 13.8 mph - N/A   Clear
3:58 PM 71.4 °F 52.5 °F 51% 30.24 in 10.0 mi ENE 15.0 mph 19.6 mph N/A   Partly Cloudy
4:58 PM 69.1 °F 50.7 °F 52% 30.24 in 10.0 mi ENE 12.7 mph 20.7 mph N/A   Overcast
5:58 PM 66.7 °F 52.2 °F 59% 30.26 in 10.0 mi NE 8.1 mph - N/A   Overcast
6:58 PM 65.5 °F 52.0 °F 62% 30.26 in 10.0 mi NE 11.5 mph - N/A   Overcast
7:54 PM 64.4 °F 51.8 °F 64% 30.25 in 10.0 mi NE 10.4 mph - N/A   Overcast
7:58 PM 64.9 °F 51.8 °F 62% 30.26 in 10.0 mi ENE 10.4 mph - N/A   Overcast
8:04 PM 64.4 °F 51.8 °F 64% 30.25 in 10.0 mi ENE 6.9 mph - N/A   Overcast
8:58 PM 63.3 °F 53.6 °F 71% 30.27 in 10.0 mi ENE 11.5 mph 18.4 mph N/A   Overcast
9:58 PM 62.6 °F 55.4 °F 77% 30.26 in 10.0 mi ENE 10.4 mph - N/A   Overcast
10:40 PM 62.6 °F 59.0 °F 88% 30.25 in 10.0 mi ENE 10.4 mph - N/A   Overcast
10:58 PM 61.9 °F 58.6 °F 89% 30.26 in 10.0 mi ENE 10.4 mph - N/A   Overcast
11:04 PM 62.6 °F 59.0 °F 88% 30.25 in 10.0 mi ENE 11.5 mph - N/A   Overcast
11:28 PM 62.6 °F 59.0 °F 88% 30.24 in 10.0 mi ENE 11.5 mph - N/A   Overcast
11:58 PM 62.1 °F 59.7 °F 92% 30.24 in 10.0 mi East 11.5 mph - N/A   Overcast